When you browse on this site, cookies collect data to enhance your experience and personalize the content and advertising you see.
Visit our Privacy Policy to learn more. By continuing to use the site, you agree to this use of cookies and data.
  • In Czech Republic
  • List of Countries
  • For 7 days
  • Water Temperature
  • Satellite Maps
  • Weather Map
  • Weather Widgets
  • user-avatar
    Login

    Hourly Weather Limassol

    Today, 25 March, Monday

    Time Temperature Precipitation Wind Pressure Humidity
    00:00 +10°C° 0 mm 6 mps 758 mmHg 38%
    01:00 +9°C° 0 mm 6 mps 758 mmHg 40%
    02:00 +9°C° 0 mm 7 mps 757 mmHg 38%
    03:00 +9°C° 0 mm 7 mps 757 mmHg 40%
    04:00 +8°C° 0 mm 6 mps 757 mmHg 42%
    05:00 +8°C° 0 mm 5 mps 758 mmHg 44%
    06:00 +9°C° 0 mm 5 mps 758 mmHg 42%
    07:00 +12°C° 0 mm 4 mps 758 mmHg 39%
    08:00 +13°C° 0 mm 3 mps 759 mmHg 37%
    09:00 +14°C° 0 mm 4 mps 759 mmHg 34%
    10:00 +15°C° 0 mm 4 mps 759 mmHg 32%
    11:00 +17°C° 0 mm 5 mps 759 mmHg 29%
    12:00 +17°C° 0 mm 5 mps 759 mmHg 31%
    13:00 +19°C° 0 mm 6 mps 759 mmHg 33%
    14:00 +18°C° 0 mm 7 mps 759 mmHg 34%
    15:00 +18°C° 0 mm 7 mps 759 mmHg 37%
    16:00 +17°C° 0 mm 7 mps 759 mmHg 40%
    17:00 +17°C° 0 mm 7 mps 759 mmHg 43%
    18:00 +15°C° 0 mm 6 mps 759 mmHg 48%
    19:00 +14°C° 0 mm 5 mps 759 mmHg 53%
    20:00 +12°C° 0 mm 4 mps 760 mmHg 59%
    21:00 +12°C° 0 mm 4 mps 760 mmHg 56%
    22:00 +12°C° 0 mm 4 mps 760 mmHg 54%
    23:00 +12°C° 0 mm 4 mps 760 mmHg 52%

    Tomorrow, 26 March, Tuesday

    Time Temperature Precipitation Wind Pressure Humidity
    00:00 +11°C° 0 mm 4 mps 761 mmHg 57%
    01:00 +10°C° 0 mm 5 mps 761 mmHg 62%
    02:00 +10°C° 0 mm 5 mps 761 mmHg 68%
    03:00 +11°C° 0 mm 4 mps 761 mmHg 72%
    04:00 +11°C° 0 mm 4 mps 761 mmHg 77%
    05:00 +10°C° 0 mm 3 mps 761 mmHg 82%
    06:00 +12°C° 0 mm 3 mps 762 mmHg 74%
    07:00 +14°C° 0 mm 3 mps 762 mmHg 66%
    08:00 +16°C° 0 mm 3 mps 763 mmHg 58%
    09:00 +17°C° 0 mm 3 mps 763 mmHg 54%
    10:00 +18°C° 0 mm 4 mps 763 mmHg 51%
    11:00 +19°C° 0 mm 4 mps 763 mmHg 48%
    12:00 +19°C° 0 mm 4 mps 763 mmHg 50%
    13:00 +19°C° 0 mm 4 mps 763 mmHg 52%
    14:00 +19°C° 0 mm 4 mps 763 mmHg 53%
    15:00 +18°C° 0 mm 3 mps 763 mmHg 55%
    16:00 +18°C° 0 mm 3 mps 763 mmHg 57%
    17:00 +17°C° 0 mm 2 mps 763 mmHg 59%
    18:00 +16°C° 0 mm 2 mps 763 mmHg 65%
    19:00 +15°C° 0 mm 2 mps 764 mmHg 72%
    20:00 +14°C° 0 mm 1 mps 764 mmHg 78%
    21:00 +13°C° 0 mm 1 mps 764 mmHg 79%
    22:00 +13°C° 0 mm 1 mps 765 mmHg 81%
    23:00 +12°C° 0 mm 1 mps 765 mmHg 82%

    Day after tomorrow, 27 March, Wednesday

    Time Temperature Precipitation Wind Pressure Humidity
    00:00 +12°C° 0 mm 1 mps 765 mmHg 81%
    01:00 +12°C° 0 mm 1 mps 765 mmHg 80%
    02:00 +12°C° 0 mm 1 mps 765 mmHg 79%
    03:00 +12°C° 0 mm 1 mps 765 mmHg 80%
    04:00 +12°C° 0 mm 1 mps 765 mmHg 80%
    05:00 +11°C° 0 mm 1 mps 765 mmHg 81%
    06:00 +13°C° 0 mm 1 mps 765 mmHg 73%
    07:00 +15°C° 0 mm 1 mps 765 mmHg 66%
    08:00 +17°C° 0 mm 2 mps 766 mmHg 59%
    09:00 +18°C° 0 mm 2 mps 766 mmHg 55%
    10:00 +19°C° 0 mm 3 mps 766 mmHg 52%
    11:00 +20°C° 0 mm 3 mps 767 mmHg 49%
    12:00 +20°C° 0 mm 4 mps 767 mmHg 49%
    13:00 +21°C° 0 mm 5 mps 767 mmHg 50%
    14:00 +21°C° 0 mm 5 mps 767 mmHg 50%
    15:00 +21°C° 0 mm 6 mps 767 mmHg 51%
    16:00 +20°C° 0 mm 6 mps 767 mmHg 53%
    17:00 +20°C° 0 mm 6 mps 767 mmHg 54%
    18:00 +19°C° 0 mm 5 mps 767 mmHg 60%
    19:00 +16°C° 0 mm 5 mps 768 mmHg 67%
    20:00 +15°C° 0 mm 4 mps 768 mmHg 74%
    21:00 +15°C° 0 mm 4 mps 768 mmHg 76%
    22:00 +14°C° 0 mm 4 mps 768 mmHg 78%
    23:00 +14°C° 0 mm 4 mps 768 mmHg 80%

    28 March, Thursday

    Time Temperature Precipitation Wind Pressure Humidity
    00:00 +14°C° 0 mm 4 mps 768 mmHg 82%
    01:00 +13°C° 0 mm 4 mps 768 mmHg 84%
    02:00 +13°C° 0 mm 4 mps 768 mmHg 86%
    03:00 +13°C° 0 mm 4 mps 768 mmHg 86%
    04:00 +13°C° 0 mm 4 mps 768 mmHg 86%
    05:00 +13°C° 0 mm 3 mps 768 mmHg 87%
    06:00 +14°C° 0 mm 3 mps 768 mmHg 79%
    07:00 +17°C° 0 mm 2 mps 769 mmHg 72%
    08:00 +19°C° 0 mm 1 mps 769 mmHg 64%
    09:00 +19°C° 0 mm 2 mps 769 mmHg 61%
    10:00 +20°C° 0 mm 3 mps 769 mmHg 58%
    11:00 +20°C° 0 mm 4 mps 769 mmHg 55%
    12:00 +21°C° 0 mm 5 mps 769 mmHg 55%
    13:00 +21°C° 0 mm 6 mps 769 mmHg 54%
    14:00 +21°C° 0 mm 6 mps 768 mmHg 53%
    15:00 +20°C° 0 mm 6 mps 768 mmHg 56%
    16:00 +20°C° 0 mm 6 mps 768 mmHg 59%
    17:00 +19°C° 0 mm 6 mps 768 mmHg 62%
    18:00 +17°C° 0 mm 5 mps 768 mmHg 68%
    19:00 +17°C° 0 mm 4 mps 768 mmHg 74%
    20:00 +16°C° 0 mm 3 mps 768 mmHg 80%
    21:00 +16°C° 0 mm 3 mps 768 mmHg 81%
    22:00 +17°C° 0 mm 3 mps 767 mmHg 81%
    23:00 +17°C° 0 mm 3 mps 767 mmHg 81%

    29 March, Friday

    Time Temperature Precipitation Wind Pressure Humidity
    00:00 +16°C° 0.1 mm 2 mps 767 mmHg 82%
    01:00 +16°C° 0.1 mm 1 mps 766 mmHg 83%
    02:00 +15°C° 0.1 mm 0 mps 766 mmHg 83%
    03:00 +16°C° 0 mm 1 mps 766 mmHg 83%
    04:00 +16°C° 0 mm 2 mps 765 mmHg 82%
    05:00 +15°C° 0 mm 2 mps 765 mmHg 81%
    06:00 +15°C° 0.9 mm 2 mps 765 mmHg 82%
    07:00 +14°C° 0.9 mm 3 mps 765 mmHg 83%
    08:00 +14°C° 0.9 mm 3 mps 765 mmHg 84%
    09:00 +14°C° 0.1 mm 3 mps 764 mmHg 81%
    10:00 +15°C° 0.1 mm 4 mps 764 mmHg 78%
    11:00 +15°C° 0.1 mm 4 mps 763 mmHg 75%
    12:00 +16°C° 0 mm 5 mps 763 mmHg 73%
    13:00 +17°C° 0 mm 5 mps 762 mmHg 72%
    14:00 +17°C° 0 mm 5 mps 761 mmHg 70%
    15:00 +17°C° 0.2 mm 5 mps 761 mmHg 73%
    16:00 +16°C° 0.2 mm 5 mps 760 mmHg 75%
    17:00 +16°C° 0.2 mm 6 mps 760 mmHg 78%
    18:00 +16°C° 0 mm 7 mps 759 mmHg 80%
    19:00 +15°C° 0 mm 8 mps 758 mmHg 81%
    20:00 +13°C° 0 mm 9 mps 758 mmHg 83%
    21:00 +13°C° 0.2 mm 10 mps 757 mmHg 83%
    22:00 +13°C° 0.2 mm 11 mps 756 mmHg 83%
    23:00 +13°C° 0.2 mm 12 mps 756 mmHg 82%

    30 March, Saturday

    Time Temperature Precipitation Wind Pressure Humidity
    00:00 +13°C° 0 mm 12 mps 755 mmHg 82%
    01:00 +13°C° 0 mm 12 mps 754 mmHg 82%
    02:00 +13°C° 0 mm 12 mps 754 mmHg 82%
    03:00 +13°C° 0 mm 11 mps 754 mmHg 83%
    04:00 +13°C° 0 mm 10 mps 753 mmHg 84%
    05:00 +13°C° 0 mm 8 mps 753 mmHg 85%
    06:00 +15°C° 0.1 mm 7 mps 753 mmHg 83%
    07:00 +15°C° 0.1 mm 5 mps 754 mmHg 81%
    08:00 +17°C° 0.1 mm 4 mps 754 mmHg 79%
    09:00 +17°C° 0.6 mm 4 mps 754 mmHg 76%
    10:00 +16°C° 0.6 mm 5 mps 754 mmHg 74%
    11:00 +17°C° 0.6 mm 5 mps 754 mmHg 72%
    12:00 +16°C° 1.2 mm 6 mps 754 mmHg 74%
    13:00 +16°C° 1.2 mm 6 mps 753 mmHg 77%
    14:00 +15°C° 1.2 mm 6 mps 753 mmHg 79%
    15:00 +15°C° 0.7 mm 6 mps 753 mmHg 79%
    16:00 +15°C° 0.7 mm 7 mps 753 mmHg 79%
    17:00 +15°C° 0.7 mm 7 mps 753 mmHg 79%
    18:00 +15°C° 0.3 mm 7 mps 753 mmHg 81%
    19:00 +14°C° 0.3 mm 6 mps 753 mmHg 83%
    20:00 +14°C° 0.3 mm 6 mps 753 mmHg 84%
    21:00 +14°C° 0.6 mm 6 mps 753 mmHg 85%
    22:00 +14°C° 0.6 mm 5 mps 753 mmHg 86%
    23:00 +14°C° 0.6 mm 5 mps 752 mmHg 87%
    Show more